When you browse on this site, cookies collect data to enhance your experience and personalize the content and advertising you see.
Visit our Privacy Policy to learn more. By continuing to use the site, you agree to this use of cookies and data.
  • Em Portugal
  • Lista de países
  • Para 7 dias
  • Temperatura da água
  • Mapas de satélite
  • Mapa do tempo
  • Widgets de tempo
  • user-avatar
    Iniciar Sessão

    Previsão horária em Kurdzhali

    Hoje, 18 Abril, Quinta-feira

    Tempo Temperatura Precipitação Vento Pressão Humidade
    00:00 +8°C° 0 mm 1 m/s 729 mmHg 91%
    01:00 +7°C° 0 mm 1 m/s 729 mmHg 92%
    02:00 +7°C° 0 mm 1 m/s 729 mmHg 93%
    03:00 +7°C° 0 mm 1 m/s 729 mmHg 94%
    04:00 +6°C° 0 mm 1 m/s 729 mmHg 94%
    05:00 +6°C° 0 mm 1 m/s 729 mmHg 94%
    06:00 +7°C° 0 mm 1 m/s 730 mmHg 90%
    07:00 +7°C° 0 mm 2 m/s 730 mmHg 85%
    08:00 +8°C° 0 mm 2 m/s 730 mmHg 80%
    09:00 +9°C° 0 mm 3 m/s 731 mmHg 76%
    10:00 +10°C° 0 mm 3 m/s 731 mmHg 71%
    11:00 +11°C° 0 mm 4 m/s 731 mmHg 67%
    12:00 +12°C° 0.2 mm 5 m/s 731 mmHg 65%
    13:00 +12°C° 0.2 mm 5 m/s 731 mmHg 63%
    14:00 +13°C° 0.2 mm 6 m/s 731 mmHg 61%
    15:00 +11°C° 0.3 mm 6 m/s 731 mmHg 64%
    16:00 +11°C° 0.3 mm 6 m/s 731 mmHg 68%
    17:00 +10°C° 0.3 mm 7 m/s 731 mmHg 72%
    18:00 +9°C° 0.2 mm 6 m/s 731 mmHg 78%
    19:00 +8°C° 0.2 mm 5 m/s 731 mmHg 84%
    20:00 +6°C° 0.2 mm 4 m/s 732 mmHg 90%
    21:00 +6°C° 0.1 mm 4 m/s 732 mmHg 91%
    22:00 +5°C° 0.1 mm 3 m/s 732 mmHg 91%
    23:00 +6°C° 0.1 mm 2 m/s 733 mmHg 92%

    Amanhã, 19 Abril, Sexta-feira

    Tempo Temperatura Precipitação Vento Pressão Humidade
    00:00 +6°C° 0 mm 2 m/s 733 mmHg 92%
    01:00 +5°C° 0 mm 2 m/s 733 mmHg 93%
    02:00 +5°C° 0 mm 2 m/s 733 mmHg 93%
    03:00 +4°C° 0.1 mm 3 m/s 733 mmHg 92%
    04:00 +4°C° 0.1 mm 3 m/s 733 mmHg 91%
    05:00 +4°C° 0.1 mm 3 m/s 732 mmHg 89%
    06:00 +5°C° 0 mm 4 m/s 733 mmHg 83%
    07:00 +6°C° 0 mm 5 m/s 733 mmHg 76%
    08:00 +8°C° 0 mm 5 m/s 733 mmHg 70%
    09:00 +9°C° 0 mm 5 m/s 733 mmHg 65%
    10:00 +10°C° 0 mm 5 m/s 733 mmHg 61%
    11:00 +12°C° 0 mm 5 m/s 732 mmHg 56%
    12:00 +13°C° 0 mm 4 m/s 732 mmHg 53%
    13:00 +14°C° 0 mm 4 m/s 732 mmHg 50%
    14:00 +16°C° 0 mm 3 m/s 732 mmHg 47%
    15:00 +14°C° 0.5 mm 3 m/s 731 mmHg 51%
    16:00 +13°C° 0.5 mm 3 m/s 731 mmHg 56%
    17:00 +13°C° 0.5 mm 4 m/s 730 mmHg 61%
    18:00 +11°C° 0.7 mm 3 m/s 730 mmHg 69%
    19:00 +10°C° 0.7 mm 2 m/s 730 mmHg 78%
    20:00 +9°C° 0.7 mm 1 m/s 730 mmHg 86%
    21:00 +9°C° 1.2 mm 1 m/s 730 mmHg 88%
    22:00 +8°C° 1.2 mm 1 m/s 731 mmHg 90%
    23:00 +7°C° 1.2 mm 2 m/s 731 mmHg 93%

    Depois de amanhã, 20 Abril, Sábado

    Tempo Temperatura Precipitação Vento Pressão Humidade
    00:00 +6°C° 0 mm 2 m/s 731 mmHg 92%
    01:00 +6°C° 0 mm 2 m/s 731 mmHg 92%
    02:00 +4°C° 0 mm 3 m/s 731 mmHg 91%
    03:00 +4°C° 0.2 mm 3 m/s 731 mmHg 92%
    04:00 +4°C° 0.2 mm 4 m/s 732 mmHg 93%
    05:00 +3°C° 0.2 mm 5 m/s 732 mmHg 93%
    06:00 +3°C° 0.1 mm 5 m/s 732 mmHg 88%
    07:00 +5°C° 0.1 mm 5 m/s 733 mmHg 83%
    08:00 +5°C° 0.1 mm 5 m/s 733 mmHg 77%
    09:00 +6°C° 0.1 mm 5 m/s 733 mmHg 70%
    10:00 +7°C° 0.1 mm 6 m/s 734 mmHg 63%
    11:00 +8°C° 0.1 mm 6 m/s 734 mmHg 56%
    12:00 +9°C° 0.3 mm 6 m/s 734 mmHg 57%
    13:00 +9°C° 0.3 mm 6 m/s 734 mmHg 59%
    14:00 +9°C° 0.3 mm 6 m/s 733 mmHg 60%
    15:00 +9°C° 0.2 mm 6 m/s 733 mmHg 61%
    16:00 +9°C° 0.2 mm 6 m/s 733 mmHg 62%
    17:00 +9°C° 0.2 mm 6 m/s 733 mmHg 63%
    18:00 +7°C° 0.1 mm 4 m/s 733 mmHg 68%
    19:00 +7°C° 0.1 mm 3 m/s 734 mmHg 74%
    20:00 +6°C° 0.1 mm 2 m/s 734 mmHg 80%
    21:00 +5°C° 0 mm 2 m/s 734 mmHg 81%
    22:00 +5°C° 0 mm 2 m/s 734 mmHg 81%
    23:00 +5°C° 0 mm 1 m/s 734 mmHg 82%

    21 Abril, Domingo

    Tempo Temperatura Precipitação Vento Pressão Humidade
    00:00 +5°C° 0 mm 1 m/s 734 mmHg 81%
    01:00 +5°C° 0 mm 1 m/s 734 mmHg 80%
    02:00 +4°C° 0 mm 1 m/s 734 mmHg 79%
    03:00 +4°C° 0 mm 1 m/s 734 mmHg 77%
    04:00 +4°C° 0 mm 1 m/s 733 mmHg 75%
    05:00 +4°C° 0 mm 1 m/s 733 mmHg 72%
    06:00 +6°C° 0 mm 1 m/s 733 mmHg 66%
    07:00 +8°C° 0 mm 1 m/s 734 mmHg 60%
    08:00 +9°C° 0 mm 1 m/s 734 mmHg 55%
    09:00 +11°C° 0 mm 1 m/s 734 mmHg 52%
    10:00 +12°C° 0 mm 1 m/s 734 mmHg 49%
    11:00 +13°C° 0 mm 2 m/s 734 mmHg 47%
    12:00 +14°C° 0 mm 2 m/s 733 mmHg 47%
    13:00 +14°C° 0 mm 2 m/s 733 mmHg 47%
    14:00 +14°C° 0 mm 2 m/s 733 mmHg 47%
    15:00 +14°C° 0 mm 2 m/s 732 mmHg 50%
    16:00 +14°C° 0 mm 2 m/s 732 mmHg 54%
    17:00 +14°C° 0 mm 2 m/s 732 mmHg 57%
    18:00 +12°C° 0 mm 2 m/s 731 mmHg 65%
    19:00 +9°C° 0 mm 2 m/s 731 mmHg 73%
    20:00 +8°C° 0 mm 2 m/s 731 mmHg 81%
    21:00 +7°C° 0 mm 2 m/s 732 mmHg 82%
    22:00 +7°C° 0 mm 2 m/s 732 mmHg 84%
    23:00 +7°C° 0 mm 1 m/s 732 mmHg 85%

    22 Abril, Segunda-feira

    Tempo Temperatura Precipitação Vento Pressão Humidade
    00:00 +7°C° 0 mm 1 m/s 732 mmHg 86%
    01:00 +7°C° 0 mm 1 m/s 731 mmHg 86%
    02:00 +7°C° 0 mm 1 m/s 731 mmHg 86%
    03:00 +6°C° 0 mm 1 m/s 731 mmHg 86%
    04:00 +6°C° 0 mm 1 m/s 731 mmHg 86%
    05:00 +5°C° 0 mm 0 m/s 731 mmHg 87%
    06:00 +8°C° 0 mm 1 m/s 731 mmHg 81%
    07:00 +9°C° 0 mm 1 m/s 731 mmHg 75%
    08:00 +11°C° 0 mm 1 m/s 732 mmHg 70%
    09:00 +12°C° 0 mm 1 m/s 732 mmHg 66%
    10:00 +14°C° 0 mm 2 m/s 732 mmHg 62%
    11:00 +14°C° 0 mm 3 m/s 732 mmHg 58%
    12:00 +14°C° 0 mm 3 m/s 732 mmHg 58%
    13:00 +16°C° 0 mm 3 m/s 732 mmHg 58%
    14:00 +15°C° 0 mm 4 m/s 731 mmHg 58%
    15:00 +15°C° 0 mm 4 m/s 731 mmHg 61%
    16:00 +14°C° 0 mm 4 m/s 731 mmHg 63%
    17:00 +14°C° 0 mm 3 m/s 731 mmHg 66%
    18:00 +12°C° 0 mm 3 m/s 731 mmHg 72%
    19:00 +12°C° 0 mm 2 m/s 731 mmHg 78%
    20:00 +9°C° 0 mm 2 m/s 731 mmHg 84%
    21:00 +9°C° 0 mm 2 m/s 732 mmHg 85%
    22:00 +8°C° 0 mm 2 m/s 732 mmHg 86%
    23:00 +8°C° 0 mm 2 m/s 732 mmHg 87%

    23 Abril, Terça-feira

    Tempo Temperatura Precipitação Vento Pressão Humidade
    00:00 +7°C° 0 mm 2 m/s 732 mmHg 86%
    01:00 +8°C° 0 mm 1 m/s 732 mmHg 85%
    02:00 +7°C° 0 mm 1 m/s 732 mmHg 84%
    03:00 +7°C° 0.1 mm 1 m/s 732 mmHg 81%
    04:00 +7°C° 0.1 mm 1 m/s 732 mmHg 77%
    05:00 +8°C° 0.1 mm 1 m/s 732 mmHg 74%
    06:00 +8°C° 0.2 mm 1 m/s 732 mmHg 72%
    07:00 +9°C° 0.2 mm 1 m/s 732 mmHg 71%
    08:00 +8°C° 0.2 mm 2 m/s 732 mmHg 69%
    09:00 +9°C° 0.1 mm 2 m/s 732 mmHg 65%
    10:00 +10°C° 0.1 mm 2 m/s 732 mmHg 61%
    11:00 +12°C° 0.1 mm 2 m/s 732 mmHg 58%
    12:00 +13°C° 0 mm 3 m/s 732 mmHg 54%
    13:00 +14°C° 0 mm 3 m/s 732 mmHg 50%
    14:00 +17°C° 0 mm 3 m/s 731 mmHg 46%
    15:00 +17°C° 0 mm 4 m/s 731 mmHg 49%
    16:00 +17°C° 0 mm 4 m/s 731 mmHg 52%
    17:00 +15°C° 0 mm 4 m/s 730 mmHg 54%
    18:00 +13°C° 0 mm 3 m/s 730 mmHg 63%
    19:00 +11°C° 0 mm 3 m/s 730 mmHg 71%
    20:00 +9°C° 0 mm 2 m/s 730 mmHg 80%
    21:00 +9°C° 0 mm 2 m/s 730 mmHg 81%
    22:00 +9°C° 0 mm 1 m/s 730 mmHg 81%
    23:00 +9°C° 0 mm 1 m/s 730 mmHg 82%
    Mostrar mais